| time (UTC) | temp F | wind direction | speed MPH | gust MPH | rain 1hr in | rain 24hr in | rain mn in | humidity % | barometer mb |
| 20260505201028 | 80 | 210 | 4.0 | 15.0 | 0.00 | 0.00 | 0.00 | 39 | 1006.1 |
| 20260505200527 | 81 | 204 | 5.0 | 17.0 | 0.00 | 0.00 | 0.00 | 38 | 1005.9 |
| 20260505200047 | 80 | 220 | 2.0 | 10.0 | 0.00 | 0.00 | 0.00 | 39 | 1006.0 |
| 20260505195527 | 80 | 206 | 4.0 | 18.0 | 0.00 | 0.00 | 0.00 | 38 | 1006.0 |
| 20260505195048 | 80 | 220 | 5.0 | 22.0 | 0.00 | 0.00 | 0.00 | 37 | 1006.1 |
| 20260505194527 | 81 | 276 | 4.0 | 16.0 | 0.00 | 0.00 | 0.00 | 37 | 1006.1 |
| 20260505194048 | 80 | 212 | 4.0 | 16.0 | 0.00 | 0.00 | 0.00 | 37 | 1006.1 |
| 20260505193527 | 81 | 208 | 5.0 | 14.0 | 0.00 | 0.00 | 0.00 | 37 | 1006.3 |
| 20260505193047 | 81 | 184 | 4.0 | 15.0 | 0.00 | 0.00 | 0.00 | 37 | 1006.3 |
| 20260505192547 | 81 | 225 | 6.0 | 22.0 | 0.00 | 0.00 | 0.00 | 37 | 1006.4 |
| 20260505192029 | 81 | 199 | 4.0 | 13.0 | 0.00 | 0.00 | 0.00 | 37 | 1006.4 |
| 20260505191528 | 81 | 206 | 4.0 | 13.0 | 0.00 | 0.00 | 0.00 | 36 | 1006.5 |
| 20260505191028 | 81 | 209 | 5.0 | 19.0 | 0.00 | 0.00 | 0.00 | 36 | 1006.4 |
| 20260505190528 | 82 | 182 | 4.0 | 15.0 | 0.00 | 0.00 | 0.00 | 36 | 1006.4 |
| 20260505190028 | 81 | 215 | 3.0 | 15.0 | 0.00 | 0.00 | 0.00 | 38 | 1006.5 |
| 20260505185527 | 81 | 190 | 4.0 | 10.0 | 0.00 | 0.00 | 0.00 | 38 | 1006.6 |
| 20260505185047 | 81 | 213 | 3.0 | 13.0 | 0.00 | 0.00 | 0.00 | 39 | 1006.8 |
| 20260505184528 | 81 | 255 | 4.0 | 17.0 | 0.00 | 0.00 | 0.00 | 39 | 1006.9 |
| 20260505184028 | 81 | 179 | 4.0 | 16.0 | 0.00 | 0.00 | 0.00 | 39 | 1007.0 |
| 20260505183528 | 81 | 193 | 3.0 | 10.0 | 0.00 | 0.00 | 0.00 | 39 | 1007.1 |
| 20260505183048 | 81 | 197 | 5.0 | 16.0 | 0.00 | 0.00 | 0.00 | 39 | 1007.1 |
| 20260505182528 | 81 | 207 | 4.0 | 18.0 | 0.00 | 0.00 | 0.00 | 39 | 1007.2 |
| 20260505182028 | 81 | 253 | 5.0 | 18.0 | 0.00 | 0.00 | 0.00 | 38 | 1007.3 |
| 20260505181528 | 82 | 243 | 4.0 | 16.0 | 0.00 | 0.00 | 0.00 | 38 | 1007.2 |
| 20260505181028 | 82 | 202 | 4.0 | 16.0 | 0.00 | 0.00 | 0.00 | 38 | 1007.3 |
| 20260505180528 | 82 | 198 | 5.0 | 13.0 | 0.00 | 0.00 | 0.00 | 38 | 1007.2 |
| 20260505180027 | 82 | 213 | 4.0 | 16.0 | 0.00 | 0.00 | 0.00 | 38 | 1007.2 |
| 20260505175547 | 82 | 180 | 5.0 | 19.0 | 0.00 | 0.00 | 0.00 | 37 | 1007.3 |
| 20260505175027 | 83 | 211 | 4.0 | 19.0 | 0.00 | 0.00 | 0.00 | 37 | 1007.5 |
| 20260505174527 | 82 | 258 | 4.0 | 11.0 | 0.00 | 0.00 | 0.00 | 36 | 1007.6 |
| 20260505174027 | 82 | 211 | 4.0 | 13.0 | 0.00 | 0.00 | 0.00 | 37 | 1007.6 |
| 20260505173547 | 82 | 187 | 4.0 | 13.0 | 0.00 | 0.00 | 0.00 | 38 | 1007.5 |
| 20260505173026 | 82 | 222 | 4.0 | 10.0 | 0.00 | 0.00 | 0.00 | 36 | 1007.8 |
| 20260505172528 | 81 | 209 | 3.0 | 11.0 | 0.00 | 0.00 | 0.00 | 36 | 1007.8 |
| 20260505172028 | 81 | 264 | 3.0 | 15.0 | 0.00 | 0.00 | 0.00 | 37 | 1007.8 |
| 20260505171528 | 81 | 262 | 3.0 | 15.0 | 0.00 | 0.00 | 0.00 | 36 | 1007.8 |
| 20260505171028 | 81 | 217 | 6.0 | 18.0 | 0.00 | 0.00 | 0.00 | 36 | 1008.0 |
| 20260505170528 | 80 | 217 | 3.0 | 11.0 | 0.00 | 0.00 | 0.00 | 38 | 1008.0 |
| 20260505170048 | 80 | 128 | 3.0 | 11.0 | 0.00 | 0.00 | 0.00 | 38 | 1008.1 |
| 20260505165527 | 80 | 228 | 4.0 | 10.0 | 0.00 | 0.00 | 0.00 | 39 | 1008.3 |
| 20260505165027 | 80 | 234 | 3.0 | 14.0 | 0.00 | 0.00 | 0.00 | 39 | 1008.3 |
| 20260505164529 | 80 | 194 | 4.0 | 14.0 | 0.00 | 0.00 | 0.00 | 39 | 1008.4 |
| 20260505164029 | 80 | 246 | 2.0 | 7.0 | 0.00 | 0.00 | 0.00 | 40 | 1008.4 |
| 20260505163529 | 80 | 180 | 3.0 | 9.0 | 0.00 | 0.00 | 0.00 | 37 | 1008.6 |
| 20260505163029 | 80 | 173 | 3.0 | 15.0 | 0.00 | 0.00 | 0.00 | 37 | 1008.8 |
| 20260505162549 | 79 | 149 | 1.0 | 7.0 | 0.00 | 0.00 | 0.00 | 39 | 1008.8 |
| 20260505162028 | 78 | 250 | 3.0 | 11.0 | 0.00 | 0.00 | 0.00 | 39 | 1009.1 |
| 20260505161528 | 78 | 188 | 3.0 | 11.0 | 0.00 | 0.00 | 0.00 | 38 | 1009.1 |
| 20260505161029 | 78 | 221 | 3.0 | 9.0 | 0.00 | 0.00 | 0.00 | 39 | 1009.2 |
| 20260505160528 | 77 | 247 | 2.0 | 11.0 | 0.00 | 0.00 | 0.00 | 40 | 1009.1 |
| 20260505153029 | 75 | 224 | 1.0 | 3.0 | 0.00 | 0.00 | 0.00 | 45 | 1009.5 |
| 20260505152529 | 75 | 275 | 1.0 | 4.0 | 0.00 | 0.00 | 0.00 | 44 | 1009.5 |
| 20260505152029 | 75 | 253 | 2.0 | 9.0 | 0.00 | 0.00 | 0.00 | 44 | 1009.5 |
| 20260505151528 | 74 | 167 | 3.0 | 9.0 | 0.00 | 0.00 | 0.00 | 44 | 1009.6 |
| 20260505151030 | 74 | 273 | 2.0 | 8.0 | 0.00 | 0.00 | 0.00 | 48 | 1009.6 |
| 20260505150530 | 73 | 203 | 2.0 | 9.0 | 0.00 | 0.00 | 0.00 | 50 | 1009.7 |
| 20260505140529 | 67 | 230 | 2.0 | 7.0 | 0.00 | 0.00 | 0.00 | 57 | 1009.9 |
| 20260505125029 | 64 | 291 | 2.0 | 7.0 | 0.00 | 0.00 | 0.00 | 61 | 1010.0 |
| 20260505124528 | 64 | 263 | 2.0 | 4.0 | 0.00 | 0.00 | 0.00 | 63 | 1010.1 |
| 20260505123629 | 63 | 209 | 2.0 | 7.0 | 0.00 | 0.00 | 0.00 | 64 | 1010.0 |
| 20260505123050 | 63 | 266 | 2.0 | 7.0 | 0.00 | 0.00 | 0.00 | 63 | 1010.0 |
| 20260505122551 | 63 | 205 | 1.0 | 6.0 | 0.00 | 0.00 | 0.00 | 64 | 1010.0 |
| 20260505122030 | 62 | 220 | 2.0 | 6.0 | 0.00 | 0.00 | 0.00 | 65 | 1009.9 |
| 20260505121530 | 62 | 246 | 2.0 | 6.0 | 0.00 | 0.00 | 0.00 | 64 | 1010.0 |
| 20260505121030 | 62 | 108 | 1.0 | 7.0 | 0.00 | 0.00 | 0.00 | 65 | 1010.0 |
| 20260505120530 | 62 | 228 | 2.0 | 7.0 | 0.00 | 0.00 | 0.00 | 65 | 1009.7 |
| 20260505120030 | 61 | 205 | 2.0 | 10.0 | 0.00 | 0.00 | 0.00 | 66 | 1009.7 |
| 20260505115550 | 61 | 202 | 2.0 | 10.0 | 0.00 | 0.00 | 0.00 | 67 | 1009.9 |
| 20260505115030 | 61 | 215 | 3.0 | 7.0 | 0.00 | 0.00 | 0.00 | 67 | 1009.9 |
| 20260505114530 | 60 | 207 | 2.0 | 4.0 | 0.00 | 0.00 | 0.00 | 67 | 1009.9 |
| 20260505114030 | 60 | 198 | 2.0 | 6.0 | 0.00 | 0.00 | 0.00 | 69 | 1009.9 |
| 20260505113530 | 59 | 176 | 1.0 | 7.0 | 0.00 | 0.00 | 0.00 | 71 | 1009.8 |
| 20260505113030 | 59 | 213 | 2.0 | 7.0 | 0.00 | 0.00 | 0.00 | 71 | 1009.8 |
| 20260505112528 | 58 | 165 | 1.0 | 3.0 | 0.00 | 0.00 | 0.00 | 71 | 1009.8 |
| 20260505112030 | 58 | 214 | 1.0 | 4.0 | 0.00 | 0.00 | 0.00 | 72 | 1009.8 |
| 20260505111530 | 58 | 184 | 1.0 | 4.0 | 0.00 | 0.00 | 0.00 | 73 | 1009.8 |
| 20260505111110 | 57 | 168 | 1.0 | 3.0 | 0.00 | 0.00 | 0.00 | 74 | 1009.9 |
| 20260505110530 | 56 | 198 | 1.0 | 3.0 | 0.00 | 0.00 | 0.00 | 75 | 1010.0 |
| 20260505102030 | 53 | 193 | 1.0 | 4.0 | 0.00 | 0.00 | 0.00 | 80 | 1009.8 |
| 20260505101530 | 53 | 176 | 2.0 | 8.0 | 0.00 | 0.00 | 0.00 | 80 | 1009.7 |
| 20260505101030 | 53 | 186 | 2.0 | 8.0 | 0.00 | 0.00 | 0.00 | 80 | 1009.7 |
| 20260505100549 | 53 | 190 | 2.0 | 6.0 | 0.00 | 0.00 | 0.00 | 79 | 1009.8 |
| 20260505100050 | 52 | 183 | 1.0 | 6.0 | 0.00 | 0.00 | 0.00 | 79 | 1009.8 |
| 20260505095529 | 52 | 185 | 2.0 | 6.0 | 0.00 | 0.00 | 0.00 | 79 | 1009.7 |
| 20260505095029 | 52 | 183 | 1.0 | 6.0 | 0.00 | 0.00 | 0.00 | 79 | 1009.8 |
| 20260505094529 | 52 | 194 | 1.0 | 4.0 | 0.00 | 0.00 | 0.00 | 79 | 1009.9 |
| 20260505094029 | 52 | 209 | 2.0 | 7.0 | 0.00 | 0.00 | 0.00 | 79 | 1009.8 |
| 20260505093529 | 52 | 191 | 1.0 | 4.0 | 0.00 | 0.00 | 0.00 | 78 | 1009.8 |
| 20260505093029 | 52 | 201 | 1.0 | 4.0 | 0.00 | 0.00 | 0.00 | 78 | 1009.8 |
| 20260505092530 | 52 | 199 | 1.0 | 6.0 | 0.00 | 0.00 | 0.00 | 78 | 1009.7 |
| 20260505092030 | 52 | 185 | 1.0 | 4.0 | 0.00 | 0.00 | 0.00 | 78 | 1009.8 |
| 20260505091530 | 52 | 169 | 1.0 | 4.0 | 0.00 | 0.00 | 0.00 | 78 | 1009.8 |
| 20260505091050 | 52 | 196 | 1.0 | 6.0 | 0.00 | 0.00 | 0.00 | 77 | 1009.8 |
| 20260505090530 | 52 | 188 | 2.0 | 8.0 | 0.00 | 0.00 | 0.00 | 77 | 1009.8 |
| 20260505090050 | 53 | 183 | 1.0 | 3.0 | 0.00 | 0.00 | 0.00 | 76 | 1009.8 |
| 20260505085529 | 53 | 174 | 1.0 | 6.0 | 0.00 | 0.00 | 0.00 | 76 | 1009.9 |
| 20260505085034 | 53 | 217 | 1.0 | 6.0 | 0.00 | 0.00 | 0.00 | 76 | 1010.0 |
| 20260505084529 | 53 | 200 | 1.0 | 4.0 | 0.00 | 0.00 | 0.00 | 76 | 1010.0 |
| 20260505084029 | 52 | 207 | 1.0 | 4.0 | 0.00 | 0.00 | 0.00 | 76 | 1010.1 |
| 20260505083529 | 52 | 231 | 1.0 | 7.0 | 0.00 | 0.00 | 0.00 | 76 | 1010.1 |
| 20260505083049 | 52 | 219 | 1.0 | 7.0 | 0.00 | 0.00 | 0.00 | 76 | 1010.0 |
| 20260505082529 | 52 | 205 | 1.0 | 3.0 | 0.00 | 0.00 | 0.00 | 76 | 1010.1 |
| 20260505082048 | 52 | 191 | 1.0 | 7.0 | 0.00 | 0.00 | 0.00 | 75 | 1010.0 |
| 20260505081528 | 52 | 229 | 0.0 | 6.0 | 0.00 | 0.00 | 0.00 | 75 | 1009.9 |
| 20260505081030 | 53 | 190 | 1.0 | 6.0 | 0.00 | 0.00 | 0.00 | 75 | 1009.9 |
| 20260505080530 | 53 | 216 | 1.0 | 3.0 | 0.00 | 0.00 | 0.00 | 75 | 1010.0 |
| 20260505080030 | 53 | 184 | 0.0 | 2.0 | 0.00 | 0.00 | 0.00 | 74 | 1010.1 |
| 20260505075530 | 52 | 196 | 1.0 | 6.0 | 0.00 | 0.00 | 0.00 | 74 | 1010.1 |
| 20260505075030 | 52 | 184 | 0.0 | 4.0 | 0.00 | 0.00 | 0.00 | 74 | 1010.1 |
| 20260505074529 | 52 | 213 | 0.0 | 2.0 | 0.00 | 0.00 | 0.00 | 74 | 1010.0 |
| 20260505074029 | 52 | 193 | 1.0 | 4.0 | 0.00 | 0.00 | 0.00 | 74 | 1010.2 |
| 20260505073529 | 52 | 188 | 1.0 | 8.0 | 0.00 | 0.00 | 0.00 | 74 | 1010.1 |
| 20260505073029 | 52 | 168 | 1.0 | 4.0 | 0.00 | 0.00 | 0.00 | 74 | 1010.1 |
| 20260505072530 | 52 | 190 | 1.0 | 6.0 | 0.00 | 0.00 | 0.00 | 74 | 1010.1 |
| 20260505072030 | 52 | 200 | 1.0 | 3.0 | 0.00 | 0.00 | 0.00 | 73 | 1010.1 |
| 20260505071530 | 52 | 171 | 0.0 | 2.0 | 0.00 | 0.00 | 0.00 | 73 | 1010.1 |
| 20260505071030 | 52 | 154 | 0.0 | 7.0 | 0.00 | 0.00 | 0.00 | 73 | 1010.1 |
| 20260505070530 | 52 | 209 | 1.0 | 7.0 | 0.00 | 0.00 | 0.00 | 73 | 1010.3 |
| 20260505070029 | 52 | 173 | 1.0 | 3.0 | 0.00 | 0.00 | 0.00 | 73 | 1010.2 |
| 20260505065529 | 52 | 218 | 1.0 | 4.0 | 0.00 | 0.00 | 0.00 | 73 | 1010.3 |
| 20260505065028 | 53 | 203 | 1.0 | 3.0 | 0.00 | 0.00 | 0.00 | 72 | 1010.3 |
| 20260505064528 | 53 | 198 | 0.0 | 3.0 | 0.00 | 0.00 | 0.00 | 72 | 1010.3 |
| 20260505064050 | 53 | 171 | 1.0 | 8.0 | 0.00 | 0.00 | 0.00 | 72 | 1010.3 |
| 20260505063530 | 52 | 169 | 0.0 | 3.0 | 0.00 | 0.00 | 0.00 | 72 | 1010.3 |
| 20260505063030 | 53 | 141 | 0.0 | 3.0 | 0.00 | 0.00 | 0.00 | 72 | 1010.3 |
| 20260505062530 | 53 | 152 | 0.0 | 2.0 | 0.00 | 0.00 | 0.00 | 72 | 1010.4 |
| 20260505062050 | 53 | 191 | 0.0 | 2.0 | 0.00 | 0.00 | 0.00 | 72 | 1010.4 |
| 20260505061529 | 53 | 211 | 1.0 | 4.0 | 0.00 | 0.00 | 0.00 | 71 | 1010.3 |
| 20260505061029 | 53 | 217 | 0.0 | 2.0 | 0.00 | 0.00 | 0.00 | 70 | 1010.3 |
| 20260505060529 | 53 | 196 | 0.0 | 3.0 | 0.00 | 0.00 | 0.00 | 70 | 1010.4 |
| 20260505060029 | 53 | 210 | 1.0 | 3.0 | 0.00 | 0.00 | 0.00 | 69 | 1010.3 |
| 20260505055529 | 54 | 261 | 0.0 | 3.0 | 0.00 | 0.00 | 0.00 | 69 | 1010.3 |
| 20260505055029 | 54 | 290 | 0.0 | 1.0 | 0.00 | 0.00 | 0.00 | 68 | 1010.3 |
| 20260505054529 | 54 | 180 | 0.0 | 3.0 | 0.00 | 0.00 | 0.00 | 68 | 1010.4 |
| 20260505054029 | 54 | 204 | 1.0 | 4.0 | 0.00 | 0.00 | 0.00 | 67 | 1010.5 |
| 20260505053531 | 54 | 159 | 0.0 | 4.0 | 0.00 | 0.00 | 0.00 | 67 | 1010.4 |
| 20260505053030 | 54 | 215 | 1.0 | 4.0 | 0.00 | 0.00 | 0.00 | 67 | 1010.4 |
| 20260505052530 | 54 | 224 | 1.0 | 3.0 | 0.00 | 0.00 | 0.00 | 66 | 1010.4 |
| 20260505052030 | 55 | 223 | 1.0 | 4.0 | 0.00 | 0.00 | 0.00 | 66 | 1010.5 |
| 20260505051530 | 55 | 197 | 1.0 | 4.0 | 0.00 | 0.00 | 0.00 | 65 | 1010.4 |
| 20260505051030 | 55 | 210 | 1.0 | 6.0 | 0.00 | 0.00 | 0.00 | 65 | 1010.4 |
| 20260505050530 | 55 | 202 | 3.0 | 8.0 | 0.00 | 0.00 | 0.00 | 65 | 1010.5 |
| 20260505041551 | 56 | 204 | 2.0 | 10.0 | 0.00 | 0.00 | 0.00 | 61 | 1010.5 |
| 20260505041030 | 56 | 208 | 2.0 | 10.0 | 0.00 | 0.00 | 0.00 | 61 | 1010.5 |
| 20260505040530 | 56 | 204 | 2.0 | 8.0 | 0.00 | 0.00 | 0.00 | 61 | 1010.5 |
| 20260505040030 | 56 | 179 | 1.0 | 4.0 | 0.00 | 0.00 | 0.00 | 61 | 1010.4 |
| 20260505035530 | 56 | 180 | 1.0 | 3.0 | 0.00 | 0.00 | 0.00 | 60 | 1010.3 |
| 20260505035030 | 56 | 184 | 1.0 | 4.0 | 0.00 | 0.00 | 0.00 | 59 | 1010.4 |
| 20260505034529 | 56 | 224 | 1.0 | 7.0 | 0.00 | 0.00 | 0.00 | 59 | 1010.4 |
| 20260505034029 | 56 | 234 | 2.0 | 7.0 | 0.00 | 0.00 | 0.00 | 58 | 1010.4 |
| 20260505033529 | 57 | 244 | 1.0 | 6.0 | 0.00 | 0.00 | 0.00 | 58 | 1010.4 |
| 20260505033031 | 57 | 208 | 1.0 | 7.0 | 0.00 | 0.00 | 0.00 | 57 | 1010.4 |
| 20260505032551 | 57 | 196 | 2.0 | 9.0 | 0.00 | 0.00 | 0.00 | 56 | 1010.4 |
| 20260505032051 | 57 | 205 | 2.0 | 14.0 | 0.00 | 0.00 | 0.00 | 56 | 1010.3 |
| 20260505031531 | 57 | 200 | 2.0 | 9.0 | 0.00 | 0.00 | 0.00 | 55 | 1010.2 |
| 20260505031032 | 57 | 214 | 2.0 | 9.0 | 0.00 | 0.00 | 0.00 | 55 | 1010.3 |
| 20260505030530 | 57 | 220 | 1.0 | 8.0 | 0.00 | 0.00 | 0.00 | 55 | 1010.3 |
| 20260505030030 | 58 | 196 | 2.0 | 11.0 | 0.00 | 0.00 | 0.00 | 54 | 1010.3 |
| 20260505025530 | 58 | 199 | 3.0 | 11.0 | 0.00 | 0.00 | 0.00 | 54 | 1010.3 |
| 20260505025030 | 58 | 233 | 2.0 | 7.0 | 0.00 | 0.00 | 0.00 | 53 | 1010.3 |
| 20260505024530 | 58 | 193 | 1.0 | 6.0 | 0.00 | 0.00 | 0.00 | 53 | 1010.3 |
| 20260505024050 | 58 | 219 | 2.0 | 6.0 | 0.00 | 0.00 | 0.00 | 53 | 1010.4 |
| 20260505023550 | 58 | 217 | 2.0 | 13.0 | 0.00 | 0.00 | 0.00 | 52 | 1010.4 |
| 20260505023029 | 58 | 208 | 2.0 | 13.0 | 0.00 | 0.00 | 0.00 | 52 | 1010.5 |
| 20260505022550 | 58 | 187 | 2.0 | 7.0 | 0.00 | 0.00 | 0.00 | 52 | 1010.5 |
| 20260505022031 | 58 | 203 | 1.0 | 6.0 | 0.00 | 0.00 | 0.00 | 51 | 1010.4 |
| 20260505021531 | 58 | 234 | 1.0 | 7.0 | 0.00 | 0.00 | 0.00 | 51 | 1010.4 |
| 20260505021031 | 59 | 254 | 1.0 | 4.0 | 0.00 | 0.00 | 0.00 | 50 | 1010.4 |
| 20260505020531 | 59 | 220 | 2.0 | 7.0 | 0.00 | 0.00 | 0.00 | 50 | 1010.3 |
| 20260505020031 | 59 | 202 | 1.0 | 4.0 | 0.00 | 0.00 | 0.00 | 50 | 1010.3 |
| 20260505015531 | 59 | 230 | 2.0 | 8.0 | 0.00 | 0.00 | 0.00 | 49 | 1010.2 |
| 20260505015050 | 60 | 247 | 2.0 | 6.0 | 0.00 | 0.00 | 0.00 | 48 | 1010.3 |
| 20260505014530 | 60 | 225 | 2.0 | 11.0 | 0.00 | 0.00 | 0.00 | 48 | 1010.3 |
| 20260505014030 | 60 | 221 | 2.0 | 11.0 | 0.00 | 0.00 | 0.00 | 49 | 1010.1 |
| 20260505013550 | 60 | 233 | 1.0 | 6.0 | 0.00 | 0.00 | 0.00 | 48 | 1010.1 |
| 20260505013030 | 60 | 235 | 3.0 | 11.0 | 0.00 | 0.00 | 0.00 | 47 | 1010.0 |
| 20260505012530 | 60 | 209 | 2.0 | 8.0 | 0.00 | 0.00 | 0.00 | 47 | 1010.0 |
| 20260505012029 | 61 | 229 | 2.0 | 8.0 | 0.00 | 0.00 | 0.00 | 46 | 1009.8 |
| 20260505011549 | 61 | 237 | 2.0 | 8.0 | 0.00 | 0.00 | 0.00 | 46 | 1009.8 |
| 20260505011029 | 61 | 235 | 2.0 | 9.0 | 0.00 | 0.00 | 0.00 | 45 | 1009.7 |
| 20260505010531 | 61 | 233 | 2.0 | 9.0 | 0.00 | 0.00 | 0.00 | 45 | 1009.6 |
| 20260505010031 | 62 | 240 | 1.0 | 9.0 | 0.00 | 0.00 | 0.00 | 45 | 1009.6 |
| 20260505005531 | 62 | 238 | 3.0 | 9.0 | 0.00 | 0.00 | 0.00 | 44 | 1009.3 |
| 20260505005030 | 62 | 223 | 3.0 | 16.0 | 0.00 | 0.00 | 0.00 | 44 | 1009.4 |
| 20260505004530 | 62 | 186 | 2.0 | 10.0 | 0.00 | 0.00 | 0.00 | 44 | 1009.2 |
| 20260505004030 | 62 | 207 | 2.0 | 10.0 | 0.00 | 0.00 | 0.00 | 44 | 1009.1 |
| 20260505003530 | 62 | 245 | 3.0 | 8.0 | 0.00 | 0.00 | 0.00 | 44 | 1009.0 |
| 20260505003030 | 63 | 234 | 2.0 | 10.0 | 0.00 | 0.00 | 0.00 | 43 | 1008.8 |
| 20260505002550 | 63 | 200 | 2.0 | 13.0 | 0.00 | 0.00 | 0.00 | 43 | 1008.6 |
| 20260505002030 | 63 | 230 | 3.0 | 14.0 | 0.00 | 0.00 | 0.00 | 42 | 1008.6 |
| 20260505001530 | 63 | 245 | 2.0 | 8.0 | 0.00 | 0.00 | 0.00 | 42 | 1008.5 |
| 20260505001029 | 63 | 212 | 3.0 | 9.0 | 0.00 | 0.00 | 0.00 | 42 | 1008.4 |
| 20260505000529 | 63 | 206 | 3.0 | 14.0 | 0.00 | 0.00 | 0.00 | 42 | 1008.2 |
| 20260505000029 | 64 | 255 | 3.0 | 14.0 | 0.00 | 0.00 | 0.00 | 41 | 1008.2 |
| 20260504235529 | 64 | 239 | 3.0 | 18.0 | 0.00 | 0.00 | 0.00 | 41 | 1008.0 |
| 20260504235051 | 64 | 192 | 2.0 | 18.0 | 0.00 | 0.00 | 0.00 | 41 | 1008.0 |
| 20260504234531 | 65 | 226 | 3.0 | 21.0 | 0.00 | 0.00 | 0.00 | 40 | 1007.9 |
| 20260504234031 | 65 | 236 | 3.0 | 9.0 | 0.00 | 0.00 | 0.00 | 40 | 1007.9 |
| 20260504233530 | 65 | 238 | 3.0 | 7.0 | 0.00 | 0.00 | 0.00 | 39 | 1007.7 |
| 20260504233031 | 66 | 206 | 3.0 | 10.0 | 0.00 | 0.00 | 0.00 | 38 | 1007.7 |
| 20260504232530 | 66 | 228 | 2.0 | 13.0 | 0.00 | 0.00 | 0.00 | 38 | 1007.5 |
| 20260504232050 | 66 | 240 | 3.0 | 13.0 | 0.00 | 0.00 | 0.00 | 37 | 1007.5 |
| 20260504231530 | 66 | 278 | 2.0 | 8.0 | 0.00 | 0.00 | 0.00 | 37 | 1007.4 |
| 20260504231030 | 67 | 258 | 3.0 | 11.0 | 0.00 | 0.00 | 0.00 | 36 | 1007.3 |
| 20260504230530 | 67 | 215 | 3.0 | 11.0 | 0.00 | 0.00 | 0.00 | 36 | 1007.1 |
| 20260504230029 | 67 | 241 | 3.0 | 11.0 | 0.00 | 0.00 | 0.00 | 35 | 1007.0 |
| 20260504225529 | 68 | 221 | 2.0 | 9.0 | 0.00 | 0.00 | 0.00 | 35 | 1006.9 |
| 20260504225029 | 68 | 225 | 2.0 | 13.0 | 0.00 | 0.00 | 0.00 | 34 | 1006.7 |
| 20260504224529 | 69 | 207 | 3.0 | 11.0 | 0.00 | 0.00 | 0.00 | 33 | 1006.7 |
| 20260504224031 | 69 | 252 | 4.0 | 11.0 | 0.00 | 0.00 | 0.00 | 31 | 1006.7 |
| 20260504223531 | 69 | 263 | 2.0 | 8.0 | 0.00 | 0.00 | 0.00 | 30 | 1006.6 |
| 20260504223030 | 70 | 224 | 2.0 | 9.0 | 0.00 | 0.00 | 0.00 | 30 | 1006.5 |
| 20260504222531 | 70 | 237 | 2.0 | 9.0 | 0.00 | 0.00 | 0.00 | 30 | 1006.5 |
| 20260504222030 | 70 | 228 | 2.0 | 9.0 | 0.00 | 0.00 | 0.00 | 29 | 1006.5 |
| 20260504221531 | 70 | 219 | 2.0 | 10.0 | 0.00 | 0.00 | 0.00 | 30 | 1006.6 |
| 20260504221030 | 70 | 257 | 2.0 | 6.0 | 0.00 | 0.00 | 0.00 | 29 | 1006.5 |
| 20260504220530 | 70 | 253 | 2.0 | 6.0 | 0.00 | 0.00 | 0.00 | 29 | 1006.5 |
| 20260504220030 | 70 | 229 | 2.0 | 14.0 | 0.00 | 0.00 | 0.00 | 29 | 1006.5 |
| 20260504215550 | 70 | 298 | 2.0 | 4.0 | 0.00 | 0.00 | 0.00 | 30 | 1006.6 |
| 20260504215030 | 70 | 250 | 2.0 | 4.0 | 0.00 | 0.00 | 0.00 | 30 | 1006.6 |
| 20260504214610 | 71 | 242 | 1.0 | 7.0 | 0.00 | 0.00 | 0.00 | 29 | 1006.4 |
| 20260504214029 | 71 | 199 | 2.0 | 6.0 | 0.00 | 0.00 | 0.00 | 29 | 1006.6 |
| 20260504213529 | 71 | 183 | 1.0 | 4.0 | 0.00 | 0.00 | 0.00 | 28 | 1006.6 |
| 20260504213029 | 71 | 261 | 2.0 | 4.0 | 0.00 | 0.00 | 0.00 | 29 | 1006.7 |
| 20260504212551 | 71 | 280 | 2.0 | 10.0 | 0.00 | 0.00 | 0.00 | 28 | 1006.6 |
| 20260504212030 | 71 | 133 | 2.0 | 6.0 | 0.00 | 0.00 | 0.00 | 29 | 1006.5 |
| 20260504211531 | 71 | 322 | 1.0 | 4.0 | 0.00 | 0.00 | 0.00 | 28 | 1006.5 |
| 20260504211030 | 71 | 236 | 2.0 | 6.0 | 0.00 | 0.00 | 0.00 | 28 | 1006.6 |
| 20260504210530 | 71 | 316 | 2.0 | 7.0 | 0.00 | 0.00 | 0.00 | 27 | 1006.6 |
| 20260504210030 | 71 | 219 | 3.0 | 8.0 | 0.00 | 0.00 | 0.00 | 29 | 1006.7 |
| 20260504205530 | 71 | 19 | 3.0 | 13.0 | 0.00 | 0.00 | 0.00 | 28 | 1006.6 |
| 20260504205030 | 71 | 288 | 3.0 | 9.0 | 0.00 | 0.00 | 0.00 | 28 | 1006.5 |
| 20260504204530 | 71 | 139 | 2.0 | 10.0 | 0.00 | 0.00 | 0.00 | 28 | 1006.6 |
| 20260504204030 | 72 | 250 | 1.0 | 8.0 | 0.00 | 0.00 | 0.00 | 27 | 1006.6 |
| 20260504203529 | 72 | 206 | 2.0 | 10.0 | 0.00 | 0.00 | 0.00 | 28 | 1006.5 |
| 20260504203029 | 72 | 217 | 1.0 | 6.0 | 0.00 | 0.00 | 0.00 | 28 | 1006.6 |
| 20260504202530 | 71 | 211 | 1.0 | 13.0 | 0.00 | 0.00 | 0.00 | 28 | 1006.6 |
| 20260504202030 | 71 | 250 | 2.0 | 13.0 | 0.00 | 0.00 | 0.00 | 26 | 1006.7 |
| 20260504201530 | 72 | 341 | 3.0 | 16.0 | 0.00 | 0.00 | 0.00 | 26 | 1006.8 |